Вернуться в каталог

COSMOS 839 DEB

АктивенUNKNOWN
NORAD 10443·DEBRIS·🇷🇺 Russia

Запущен Jul 8, 1976 с Plesetsk Cosmodrome

Loading…

Ближайшие Пролёты (ближайшие 24 часа)

TLE

СвежийSource: Space-Track

Эпоха: Sep 14, 2026, 10:01 UTC

1 10443U 76067U   26257.41795731  .00000024  00000-0  21177-3 0  9994
2 10443  65.8055 259.4525 0730136 207.6687 308.0847 12.47476655281313

Отслеживайте COSMOS 839 DEB в реальном времени с AllMySat

Download on the App Store